{"data":{"norad_id":53834,"epoch":"2026-05-25T04:20:37.262112Z","epoch_age_seconds":66554,"freshness":"FRESH","line1":"1 53834U 22114S   26145.18098683 -.00001391  00000+0 -69302-4 0  9993","line2":"2 53834  53.2141 320.4080 0001162  86.6074 273.5051 15.08843631204388","mean_motion":15.08843631,"eccentricity":0.0001162,"inclination_deg":53.2141,"raan_deg":320.408,"arg_perigee_deg":86.6074,"mean_anomaly_deg":273.5051,"bstar":-6.9302e-5,"rev_number":20438,"period_min":95.437325009327,"perigee_km":538.92843406041,"apogee_km":540.53614688352,"semimajor_km":6917.869290472,"source":"CELESTRAK","updated_at":"2026-05-25T13:38:17.572511Z"}}